Regional Weather Roundup
Issued by NWS

Home | Current Version | Previous Version | Graphics & Text | Print | Product List | Glossary Off
Versions: 1 2 3 4 5 6 7 8 9 10 11 12 13 14 15 16 17 18 19 20 21 22 23 24 25 26 27 28 29 30 31 32 33 34 35 36 37 38 39 40 41 42 43 44 45 46 47 48 49 50

437
ASUS43 KLSX 100410
RWRMO

WEATHER SUMMARY FOR MISSOURI
NATIONAL WEATHER SERVICE SPRINGFIELD MO
1000 PM CST TUE FEB 09 2016

NOTE: "FAIR" INDICATES FEW OR NO CLOUDS BELOW 12,000 FEET WITH NO
       SIGNIFICANT WEATHER AND/OR OBSTRUCTIONS TO VISIBILITY.
       CURRENT SKY AND/OR WEATHER CONDITIONS ARE NOT AVAILABLE FOR
       CHILLICOTHE AND FARMINGTON.

MOZ001>031-035>038-043-044-053-054-100500-
...NORTHERN AND WESTERN MISSOURI...

CITY           SKY/WX    TMP DP  RH WIND       PRES   REMARKS
KANSAS CTY INT CLEAR     21   9  59 NW8       30.25S WCI  11
KANSAS C DTWN  CLEAR     24   9  52 NW5       30.28R WCI  18
LEE`S SUMMIT   CLEAR     23   8  52 NW10      30.26R WCI  12
ST JOSEPH      MOCLDY    20  10  65 NW8       30.28R WCI  10
CHILLICOTHE      N/A     21   9  59 NW10      30.23S WCI  10
KIRKSVILLE     PTCLDY    15   6  67 NW8       30.17S WCI   4

$$
MOZ066>068-077>081-088>096-101>105-100500-
...SOUTHWEST MISSOURI...

CITY           SKY/WX    TMP DP  RH WIND       PRES   REMARKS
SPRINGFIELD    CLEAR     23   3  42 NW15      30.22R WCI  10
JOPLIN         CLEAR     24   6  46 NW9       30.30R WCI  14

$$
MOZ032>034-039>042-045>050-055>058-069>072-100500-
...CENTRAL MISSOURI...

CITY           SKY/WX    TMP DP  RH WIND       PRES   REMARKS
COLUMBIA       CLEAR     20   5  52 NW20      30.17R WCI   4
JEFFERSON CITY CLEAR     22   7  52 NW12      30.20R WCI  10
ROLLA          CLEAR     20   7  57 NW16G23   30.12R WCI   6
SEDALIA        CLEAR     23   7  50 NW22G30   30.24R WCI   8
WHITEMAN AFB   CLEAR     22   7  52 NW13G21   30.23R WCI  10
WARRENSBURG    PTCLDY    23   9  54 W9        30.25S WCI  13
OSAGE BEACH    CLEAR     23   3  42 W12G20    30.20R WCI  12

$$
MOZ051-052-059>065-100500-
...EAST CENTRAL MISSOURI...

CITY           SKY/WX    TMP DP  RH WIND       PRES   REMARKS
ST LOUIS INTL  PTCLDY    22   8  55 NW15G25   30.12R WCI   9
SPIRIT OF STL  PTCLDY    22   7  52 NW12G22   30.14R WCI  10
ST CHARLES     CLEAR     20   9  62 NW18      30.13R WCI   5

$$
MOZ072>076-082>087-097>100-106>115-100500-
...SOUTH CENTRAL AND SOUTHEAST MISSOURI...

CITY           SKY/WX    TMP DP  RH WIND       PRES   REMARKS
CAPE GIRARDEAU CLEAR     22  11  62 NW10      30.12S WCI  11
FARMINGTON     CLOUDY    23   9  55 NW20G29   30.10R WCI   8
POPLAR BLUFF   CLEAR     25  11  55 NW6       30.15R WCI  18
WEST PLAINS    CLEAR     25   6  44 NW10G23   30.14R WCI  15

$$




USA.gov is the U.S. government's official web portal to all federal, state and local government web resources and services.